Voltar ao catálogo

FREGAT DEB

LostUNKNOWN
NORAD 45907·DEBRIS·🇷🇺 Russia

Lançado Jul 18, 2011 de Baikonur Cosmodrome

Loading…

Próximas Passagens (próximas 24 horas)

TLE

ObsoletoSource: Space-Track

Época: Jun 13, 2022, 17:31 UTC

1 45907U 11037EC  22164.73004500  .01419545  00000-0  57239+0 0  9995
2 45907  50.6096 283.1432 1061734 185.8928 172.8539 12.71782921 87616

Acompanhe FREGAT DEB em tempo real com AllMySat

Download on the App Store